Regional Weather Roundup
Issued by NWS

Home | Current Version | Previous Version | Graphics & Text | Print | Product List | Glossary On
Versions: 1 2 3 4 5 6 7 8 9 10 11 12 13 14 15 16 17 18 19 20 21 22 23 24 25 26 27 28 29 30 31 32 33 34 35 36 37 38 39 40 41 42 43 44 45 46 47 48 49 50
000
ASUS45 KABQ 041310
RWRNM
WEATHER ROUNDUP FOR NEW MEXICO
NATIONAL WEATHER SERVICE ALBUQUERQUE NM
700 AM MDT MON MAY 04 2015

NOTE: "FAIR" MEANS FEW OR NO CLOUDS BELOW 12,000 FEET AGL WITH NO
       SIGNIFICANT WEATHER OR OBSTRUCTIONS TO VISION.

      THIS PRODUCT IS RELEASED AS TWO VERSIONS.  ONE VERSION NEAR
      THE TOP OF THE HOUR CONTAINING PRELIMINARY DATA FROM ALBUQUERQUE
      AND OTHER STATIONS.  A FINAL VERSION WITH ADDITIONAL DATA IS
      ISSUED ABOUT 10 MINUTES AFTER THE HOUR.

NMZ501-503-504-510>518-041400-
NORTHWEST PLATEAU/NORTHCENTRAL MOUNTAINS

CITY           SKY/WX    TMP DP  RH WIND       PRES   REMARKS
FARMINGTON     CLEAR     49  38  65 E5        30.03R
LOS ALAMOS     PTCLDY    46  39  76 CALM      30.13R
SANTA FE       MOCLDY    51  40  65 NW7       30.07F
TAOS           PTCLDY    39  28  65 NW3       30.15R
ANGEL FIRE     FOG       35  35  99 CALM      30.21R VSB<1/4

$$
NMZ402-403-502-505>509-041400-
WESTCENTRAL MOUNTAINS/SOUTHWEST MOUNTAINS

CITY           SKY/WX    TMP DP  RH WIND       PRES   REMARKS
GALLUP         MOCLDY    49  39  68 NE5       30.06R
GRANTS         PTCLDY    38  34  86 CALM      30.10R
SILVER CITY      N/A     57  37  47 E7        30.02S

$$
NMZ407-409-411-412-041400-
SOUTHERN DESERTS

CITY           SKY/WX    TMP DP  RH WIND       PRES   REMARKS
LORDSBURG      CLOUDY    55  50  82 SW12G25   30.02R
DEMING         MOCLDY    57  43  59 CALM      29.96S
LAS CRUCES     MOCLDY    60  44  55 W6        29.97R
ALAMOGORDO     MOCLDY    63  48  59 S8        29.95F
T OR C         PTCLDY    58  38  47 N5        29.99R

$$
NMZ519>523-041400-
CENTRAL VALLEYS/CENTRAL HIGHLANDS

CITY           SKY/WX    TMP DP  RH WIND       PRES   REMARKS
ALBUQUERQUE    MOCLDY    56  39  53 SE13      30.05R
DOUBLE EAGLE   MOCLDY    54  39  58 NE8       30.06R
MORIARTY ARPT  FAIR      48  37  64 CALM      30.13R
CLINES CORNERS LGT RAIN  49  41  74 NW5       30.13R
BELEN          FAIR      52  39  61 W6        30.04R
SOCORRO        FAIR      56  40  55 CALM      30.02R

$$
NMZ524>526-539-540-041400-
SOUTHCENTRAL MOUNTAINS

CITY           SKY/WX    TMP DP  RH WIND       PRES   REMARKS
RUIDOSO        MOCLDY    48  43  81 S3        30.13S

$$
NMZ527>531-041400-
NORTHEAST HIGHLANDS/NORTHEAST PLAINS

CITY           SKY/WX    TMP DP  RH WIND       PRES   REMARKS
LAS VEGAS      MOCLDY    45  37  73 N6        30.13R
RATON          SUNNY     48  40  73 NE7       30.11R
CLAYTON        MOSUNNY   54  46  74 NW15      30.04R

$$
NMZ532>537-041400-
EASTCENTRAL PLAINS

CITY           SKY/WX    TMP DP  RH WIND       PRES   REMARKS
TUCUMCARI        N/A     59  52  77 CALM      30.00R
CANNON AFB     MOSUNNY   54  50  86 E8        30.03R
CLOVIS AIRPORT SUNNY     54  46  76 SE7       30.03R

$$
NMZ028-029-538-041400-
SOUTHEAST PLAINS

CITY           SKY/WX    TMP DP  RH WIND       PRES   REMARKS
ROSWELL        MOCLDY    57  49  74 CALM      29.97R
ARTESIA        CLOUDY    59  54  82 S6        29.99R
CARLSBAD       CLOUDY    61  53  75 NE5       29.94R
HOBBS          SUNNY     57  57 100 VRB5      30.00R


$$



USA.gov is the U.S. government's official web portal to all federal, state and local government web resources and services.